Showing default

MIDAS 7/ERS 10, 622

Orbit data source: Space-Track

MIDAS 7/ERS 10, 622 is a payload satellite owned by USAF SSD (US) in LEO that was launched on Fri, 19 Jul 1963 UTC via an ATLAS AGENA B launch vehicle from the Air Force Western Test Range (AFWTR). Payload-class satellites include a variety of spacecraft equipped with specific instruments for various scientific and technological missions. These include communications satellites like Starlink; space stations such as the ISS; scientific satellites like the Hubble; Earth observation satellites from companies like Planet Labs, Umbra, and HawkEye 360; GPS; miniature CubeSats for education and research; and military/defense satellites.

Loading next visibility...
Identifier
622, 1963-030A
Orbit
LEO
Country
Flag of USUS
Related business
Manufacturer
LMSC
Mission
Spacecraft
Bus & Motor
MIDAS, Unknown motor
Mass
~1,540 kg wet, ~840 kg dry
Launch date (UTC)
1963-07-19 (63 years ago)
Launch vehicle
ATLAS AGENA B
Launch site
Air Force Western Test Range (AFWTR)
Object type
Payload
Rocket body
Debris
Shape & HBR
Unknown
Radar Cross Section
Large (>1 m²)

Expand to show TLE details & history
Last TLE update: 2 weeks ago

TLE from 2 weeks ago
0 MIDAS 7/ERS 10
1 00622U 63030A   26152.15075642  .00000027  00000-0  12170-1 0  9999
2 00622  88.4464 212.2443 0030727  77.6427 282.7860  8.57932337458407
Epoch: 2026-06-01T03:37Z
TLE epoch observation values (Epoch: 2026-06-01T03:37:05.354Z)
Latitude
-0.00003°
Longitude
-91.67021°
Altitude
3,696.644 km
Speed
6.293 km/s
True Right ascension
14h 08m 58s
True Declination
0° 00' 00"
Sunlit
Object was in daylight at epoch
Visualization orbit readout
Latitude
Unknown
Longitude
Unknown
Altitude
Unknown
Speed
Unknown
Apparent Right ascension
Unknown
Apparent Declination
Unknown
Sunlit
N/A
Visualization observer readout
Local Sidereal Time
13:36:39
Azimuth
Unknown
Elevation
Unknown
Doppler factor
Unknown
Orbital elements
Apogee altitude
3,730.018 km
Perigee altitude
3,668.09 km
Semi-major axis
10,077.191 km
Eccentricity
0.00307
Inclination
88.4464°
RAAN
212.2443°
Arg. of periapsis
77.6427°
True anomaly
282.44234°
Mean anomaly
282.786°
Eccentric anomaly
282.6142°
Mean motion
2.14553 °/min
Orbital period
167.79 mins
BSTAR
0.01217
Loading maneuver chart data...
Computing Atmospheric mass density...
Loading historical data...
Loading historical data...
Loading historical data...
Loading historical data...
Loading historical data...
Loading historical data...
Loading historical data...

Documentation

Showing up to 5 results
|